Weather History for KEKQ - June, 2013

Change the Weather History Date:

Saturday, June 29, 2013

  Actual Average Record
Temperature  
Mean Temperature 71 °F -  
Max Temperature 81 °F 85 °F 106 °F (2012)
Min Temperature 61 °F 62 °F 51 °F (1988)
Cooling Degree Days 6    
Growing Degree Days 21 (Base 50)    
Moisture  
Dew Point 66 °F    
Average Humidity 79    
Maximum Humidity 100    
Minimum Humidity 54    
Precipitation  
Precipitation 0.00 in - - ()
Sea Level Pressure  
Sea Level Pressure 29.69 in    
Wind  
Wind Speed 3 mph (SW)    
Max Wind Speed 12 mph    
Max Gust Speed 17 mph    
Visibility 10 miles    
Events      
Averages and records for this station are not official NWS values.
T = Trace of Precipitation, MM = Missing Value Source: NWS Daily Summary

Daily Weather History Graph

Daily Weather History Graph

Search for Another Location

Airport or City:

Trip Planner

Search our weather history database for the weather conditions in past years. The results will help you decide how hot, cold, wet, or windy it might be!

Date:

Astronomy

Jun. 29, 2013 Rise Set
Actual Time 5:23 AM CDT 8:02 PM CDT
Civil Twilight 4:52 AM CDT 8:33 PM CDT
Nautical Twilight 4:14 AM CDT 9:11 PM CDT
Astronomical Twilight 3:31 AM CDT 9:54 PM CDT
Moon No Moon Rise 12:22 PM CDT (6/29)
Length of Visible Light 15h 40m
Length of Day
14h 39m
Waning Gibbous, 55% of the Moon is Illuminated
Jun 29
Waning Gibbous
Jun 29
Last Quarter
Jul 8
New
Jul 15
First Quarter
Jul 22
Full

Hourly Weather History & Observations

Time (CDT) Temp. Heat Index Dew Point Humidity Pressure Visibility Wind Dir Wind Speed Gust Speed Precip Events Conditions
12:56 AM 68.9 °F - 68.9 °F 100% 29.70 in 10.0 mi Calm Calm - N/A   Mostly Cloudy
1:56 AM 70.0 °F - 68.0 °F 93% 29.69 in 10.0 mi Calm Calm - N/A   Mostly Cloudy
2:56 AM 66.9 °F - 65.8 °F 96% 29.68 in 10.0 mi Calm Calm - N/A   Clear
3:56 AM 63.0 °F - 63.0 °F 100% 29.69 in 10.0 mi Calm Calm - N/A   Clear
4:56 AM 61.9 °F - 61.9 °F 100% 29.69 in 10.0 mi Calm Calm - N/A   Clear
5:56 AM 64.9 °F - 64.9 °F 100% 29.71 in 10.0 mi Calm Calm - N/A   Mostly Cloudy
6:56 AM 68.0 °F - 66.9 °F 96% 29.70 in 10.0 mi Calm Calm - N/A   Partly Cloudy
7:56 AM 72.0 °F - 66.9 °F 84% 29.71 in 10.0 mi WSW 5.8 mph - N/A   Scattered Clouds
8:56 AM 75.9 °F - 65.8 °F 71% 29.70 in 10.0 mi SW 9.2 mph - N/A   Clear
9:56 AM 77.9 °F - 65.8 °F 66% 29.70 in 10.0 mi Variable 5.8 mph - N/A   Clear
10:56 AM 81.0 °F 83.3 °F 66.9 °F 62% 29.70 in 10.0 mi WSW 5.8 mph - N/A   Partly Cloudy
11:56 AM 81.9 °F 83.5 °F 64.9 °F 56% 29.70 in 10.0 mi West 8.1 mph - N/A   Clear
12:56 PM 81.0 °F 82.7 °F 64.9 °F 58% 29.70 in 10.0 mi Variable 6.9 mph - N/A   Partly Cloudy
1:56 PM 81.9 °F 84.2 °F 66.9 °F 60% 29.69 in 10.0 mi SW 6.9 mph - N/A   Partly Cloudy
2:56 PM 81.9 °F 83.5 °F 64.9 °F 56% 29.68 in 10.0 mi SW 11.5 mph 17.3 mph N/A   Scattered Clouds
3:56 PM 79.0 °F - 66.9 °F 66% 29.68 in 10.0 mi SW 5.8 mph - N/A   Partly Cloudy
4:56 PM 79.9 °F - 65.8 °F 62% 29.67 in 10.0 mi SW 4.6 mph - N/A   Partly Cloudy
5:56 PM 81.9 °F 83.2 °F 63.9 °F 54% 29.66 in 10.0 mi WSW 8.1 mph - N/A   Clear
6:56 PM 79.9 °F - 64.9 °F 60% 29.67 in 10.0 mi SW 6.9 mph - N/A   Clear
7:56 PM 73.9 °F - 65.8 °F 76% 29.68 in 10.0 mi Calm Calm - N/A   Clear
8:56 PM 68.0 °F - 68.0 °F 100% 29.69 in 10.0 mi Calm Calm - N/A   Clear
9:56 PM 70.0 °F - 68.0 °F 93% 29.71 in 10.0 mi North 3.5 mph - N/A   Mostly Cloudy
10:56 PM 68.9 °F - 68.0 °F 97% 29.71 in 10.0 mi Calm Calm - N/A   Scattered Clouds
11:56 PM 66.9 °F - 65.8 °F 96% 29.71 in 10.0 mi ESE 4.6 mph - N/A   Clear